FW6229 Weather Reports


time (UTC)temp
F
wind
direction
speed
knots
gust
knots
rain 1hr
in
rain 24hr
in
rain mn
in
humidity
%
barometer
mb
20260504050010 62 51 0.0 0.0 0.00 0.00 0.00 52 1011.0
20260504044508 63 61 0.0 0.0 0.00 0.00 0.00 52 1010.9
20260504041505 64 43 0.0 0.0 0.00 0.00 0.00 51 1010.2
20260504040006 64 149 0.0 0.0 0.00 0.00 0.00 54 1010.1
20260504034507 65 179 0.0 0.0 0.00 0.00 0.00 55 1009.9
20260504033006 66 189 0.0 0.0 0.00 0.00 0.00 53 1009.7
20260504031506 67 184 0.0 0.0 0.00 0.00 0.00 47 1009.5
20260504030005 68 186 0.0 0.0 0.00 0.00 0.00 54 1009.4
20260504024505 70 186 0.0 0.0 0.00 0.00 0.00 42 1009.2
20260504023006 72 188 0.0 0.0 0.00 0.00 0.00 49 1009.0
20260504021503 73 188 0.0 0.0 0.00 0.00 0.00 46 1008.9
20260504001529 67 188 0.0 0.0 0.00 0.00 0.00 56 1009.6
20260504000019 67 188 0.0 0.0 0.00 0.00 0.00 59 1009.8
20260503234518 70 184 0.0 0.0 0.00 0.00 0.00 55 1010.0
20260503233006 75 184 0.0 0.0 0.00 0.00 0.00 44 1010.2
20260503231507 75 184 0.0 0.0 0.00 0.00 0.00 39 1010.5
20260503230007 75 184 0.0 0.0 0.00 0.00 0.00 29 1010.7
20260503224505 74 184 0.0 0.0 0.00 0.00 0.00 30 1011.0
20260503223008 74 184 0.0 0.0 0.00 0.00 0.00 36 1011.2
20260503221505 74 184 0.0 0.0 0.00 0.00 0.00 37 1011.5
20260503220004 73 184 0.0 0.0 0.00 0.00 0.00 35 1011.8
20260503214506 71 184 0.0 0.0 0.00 0.00 0.00 38 1012.1
20260503211504 68 184 0.0 0.0 0.00 0.00 0.00 47 1012.6
20260503210008 67 184 0.0 0.0 0.00 0.00 0.00 48 1012.8
20260503204506 67 184 0.0 0.0 0.00 0.00 0.00 48 1013.1
20260503201505 65 182 0.0 0.0 0.00 0.00 0.00 58 1013.7
20260503194506 61 182 0.0 0.0 0.00 0.00 0.00 63 1014.4
20260503193006 60 182 0.0 0.0 0.00 0.00 0.00 70 1014.6
20260503191504 59 182 0.0 0.0 0.00 0.00 0.00 73 1014.9
20260503184505 57 178 0.0 0.0 0.00 0.00 0.00 74 1015.4
20260503180006 55 154 0.0 0.0 0.00 0.00 0.00 86 1016.0
20260503174505 53 154 0.0 0.0 0.00 0.00 0.00 87 1016.3
20260503171507 51 154 0.0 0.0 0.00 0.00 0.00 93 1017.0